Wind_Speed
43 44 41 38 36 33 31 41 32 8 13 26 20 33 31 28 27 28 24 29 30 30 29 27 25 21 20 18 15 13 13 12 12 12 11 10 9 9
43 42 44 39 37 35 35 37 29 19 7 20 29 30 33 29 28 28 24 29 29 28 28 27 23 21 20 18 17 16 16 15 14 14 13 12 10 9
42 42 42 41 36 31 30 32 23 21 11 12 29 29 34 31 29 27 27 26 26 29 29 28 23 21 21 20 19 17 17 17 15 15 13 12 11 10
47 42 39 37 37 39 34 32 27 25 16 18 22 33 36 33 34 31 30 26 25 30 31 27 24 25 24 23 22 20 20 21 19 16 15 14 12 11
49 47 45 43 41 38 43 40 39 33 27 25 20 29 34 37 35 31 29 29 22 23 27 26 26 26 25 25 23 19 17 20 18 15 17 16 14 12
48 50 50 54 54 51 44 42 39 34 31 32 27 33 34 37 38 34 28 29 25 24 24 23 23 22 21 21 21 19 19 20 21 22 22 19 18 14
45 49 49 52 53 51 47 44 43 36 34 30 27 31 29 33 36 31 30 28 24 30 27 23 23 22 21 21 21 21 20 18 19 20 21 19 19 14
34 35 34 39 45 47 48 51 54 47 36 27 28 31 33 35 35 35 31 30 15 29 30 26 24 23 22 23 23 23 22 19 17 18 19 18 17 16
34 33 35 42 45 49 44 45 47 50 51 47 38 36 35 43 39 35 34 35 27 25 32 25 27 23 21 20 22 21 21 19 17 16 17 17 16 15
33 31 29 29 37 41 40 40 41 46 45 41 45 48 44 49 54 52 49 34 21 27 31 17 26 22 23 20 24 24 24 22 21 19 18 17 17 16
28 31 32 33 36 41 36 31 27 28 37 40 37 37 39 40 50 34 30 28 15 22 36 16 26 20 24 24 22 26 26 25 23 22 21 19 17 15
24 25 29 32 33 37 35 31 27 31 35 28 25 29 37 39 48 45 44 34 21 10 29 16 26 23 10 22 26 28 26 24 24 24 22 20 19 18
26 24 23 22 28 31 29 32 32 31 30 32 27 26 29 35 39 34 38 36 30 10 29 30 25 30 10 10 26 28 30 26 25 24 22 21 21 21
27 24 22 20 21 21 24 28 30 31 30 29 28 26 29 31 34 37 37 35 31 20 25 41 18 34 22 16 16 29 30 31 29 28 28 24 21 22
25 25 26 26 27 24 20 22 26 29 29 25 22 22 30 32 33 35 35 35 30 25 20 39 22 33 25 16 18 22 28 28 30 27 25 24 23 21
24 24 25 26 24 21 17 19 21 24 28 25 23 24 26 27 27 28 25 28 24 18 19 27 31 28 28 21 21 22 31 22 33 30 27 24 21 20
29 26 24 22 21 20 19 19 19 22 23 23 24 24 24 26 24 27 22 23 21 20 20 25 27 21 23 23 18 21 30 24 23 30 28 25 23 21
25 22 18 19 18 18 18 16 16 17 19 21 22 23 22 23 23 25 23 23 23 21 22 24 23 21 15 14 21 22 24 26 18 29 27 24 22 21
19 17 16 16 17 17 16 16 15 16 18 19 20 21 21 19 21 21 22 21 21 21 24 23 28 28 19 12 20 22 24 24 21 25 26 25 22 21
14 14 14 15 13 13 13 12 11 12 14 14 14 15 17 16 18 20 22 22 21 19 22 25 29 30 26 19 14 20 24 25 25 23 23 19 16 16
11 11 12 12 12 11 11 11 13 13 12 15 13 15 18 16 17 18 18 22 22 20 23 25 28 28 19 16 14 15 29 24 23 22 22 22 20 15
10 10 9 9 10 10 13 13 13 12 13 14 14 16 17 17 15 18 18 20 22 21 21 18 21 24 20 19 15 18 19 22 19 19 21 20 17 14
11 10 10 10 10 11 12 13 12 13 12 12 13 14 16 17 16 15 17 18 19 17 17 19 21 21 18 15 14 18 18 20 21 20 20 25 16 12
Wind_Direction
212 210 211 210 207 197 187 178 167 164 194 198 188 198 194 194 194 186 187 193 199 197 194 186 182 176 173 172 167 167 156 155 158 157 149 142 136 127
213 213 209 205 202 193 191 187 185 165 166 179 192 189 189 187 193 183 187 188 196 199 200 197 185 183 186 176 172 175 160 163 168 163 158 153 147 139
213 213 211 205 200 193 188 184 188 178 150 156 184 181 184 183 182 182 184 182 189 202 203 200 199 194 185 181 179 177 168 167 170 171 165 160 156 152
206 209 210 205 200 189 183 190 190 191 149 145 164 175 179 184 178 177 180 185 188 200 205 203 201 195 190 186 187 185 180 173 173 173 168 167 162 156
207 203 201 195 193 192 192 191 197 191 179 162 154 180 175 175 178 181 182 184 188 194 201 202 197 199 194 192 192 186 184 183 175 172 168 169 164 162
209 207 203 199 197 195 196 193 189 182 171 160 163 171 175 183 181 177 174 179 184 181 187 189 190 195 193 194 193 189 189 188 186 183 179 182 175 164
210 208 206 205 204 199 187 183 176 168 164 161 160 168 176 177 181 181 171 171 181 174 178 189 192 196 201 200 200 194 191 189 189 185 184 188 184 171
206 203 208 209 207 195 186 183 181 170 172 164 171 171 180 182 180 176 168 163 167 186 183 188 190 196 200 201 200 195 193 189 190 192 183 189 180 178
206 198 197 201 195 192 189 186 190 189 189 179 173 177 175 181 177 176 178 182 186 184 182 181 188 194 198 202 202 196 194 190 190 194 195 195 191 185
198 194 195 182 185 179 184 190 190 191 190 186 197 193 199 189 190 191 189 181 179 177 176 176 183 188 187 195 195 192 193 191 192 197 198 192 193 194
184 182 185 187 191 190 179 176 177 182 191 194 208 214 211 207 195 176 167 160 143 169 182 171 176 179 186 191 197 197 194 190 193 197 202 202 200 202
164 176 187 190 190 182 172 169 165 179 183 182 192 194 200 199 198 191 174 173 166 159 191 173 168 169 183 204 204 200 197 196 194 197 201 204 203 205
153 160 173 188 183 183 186 185 186 187 185 185 186 186 189 185 185 183 186 183 180 179 191 177 177 181 179 165 196 203 202 197 195 200 203 204 202 201
141 144 143 151 164 173 189 193 193 185 176 171 169 168 173 179 186 190 195 191 194 205 197 183 180 184 183 171 177 199 200 199 200 199 203 203 205 209
154 156 156 161 162 170 180 188 187 179 168 160 161 167 181 192 191 193 203 202 202 206 198 192 192 187 187 181 185 187 187 196 199 199 202 203 208 209
140 141 143 147 150 150 158 173 177 180 176 167 167 178 183 180 179 185 182 189 189 188 195 199 193 190 189 195 181 180 186 187 196 196 198 201 209 214
137 136 133 136 140 148 157 168 174 179 174 174 170 168 172 177 179 185 182 184 192 186 182 191 196 196 196 195 186 184 183 191 195 195 194 203 212 216
134 131 133 142 145 152 158 163 175 178 178 178 174 176 175 176 175 183 188 190 196 187 181 178 175 179 177 192 203 190 186 191 189 191 194 201 212 217
131 136 142 147 151 160 168 176 172 181 192 189 188 187 187 188 185 191 198 197 198 191 187 179 182 184 186 198 196 193 186 187 184 186 195 205 211 214
133 138 142 149 156 165 173 174 170 173 184 189 194 193 196 198 198 201 203 202 201 190 183 181 191 196 199 196 174 193 187 182 182 187 193 199 203 212
128 138 147 153 161 171 176 177 174 172 181 194 195 198 203 200 206 209 209 206 200 188 189 193 197 196 198 173 147 168 189 186 188 187 186 191 196 198
145 147 151 162 166 171 176 177 178 179 187 191 197 202 208 208 212 210 209 205 204 199 201 192 182 180 179 187 183 161 169 183 186 193 198 186 191 207
153 153 161 165 175 177 174 172 175 181 185 189 195 201 208 210 216 215 209 206 201 192 180 169 169 176 182 181 164 159 164 171 180 189 195 201 210 204
Height
754 759 763 769 775 778 782 784 788 807 819 823 827 833 839 847 852 855 859 861 866 871 874 876 880 885 887 889 891 894 894 897 901 903 903 905 906 906
745 750 754 759 765 770 773 777 781 786 803 810 817 823 832 838 845 851 857 858 862 868 873 876 879 882 885 886 887 890 889 893 899 900 901 902 905 905
734 740 745 750 755 760 765 770 779 781 788 801 812 817 828 833 840 847 850 855 856 863 867 869 876 879 882 883 885 888 887 891 896 898 900 902 903 904
715 728 734 742 746 745 745 764 771 777 788 797 808 814 816 829 834 839 843 850 853 858 864 866 872 878 878 881 883 884 885 887 890 895 897 900 903 904
704 708 718 725 731 738 746 742 761 767 776 790 797 816 814 819 831 833 837 844 853 855 861 864 868 875 875 877 880 882 887 889 891 893 895 896 900 902
691 696 702 705 711 715 730 735 755 764 763 778 794 802 808 816 819 826 834 840 847 851 858 862 865 874 874 876 879 880 882 885 888 888 892 895 897 899
681 684 688 691 699 706 709 725 739 749 757 770 779 792 802 808 807 818 824 832 842 846 853 859 864 867 871 875 875 877 880 883 887 886 889 893 893 897
675 678 676 688 696 699 702 712 714 726 745 755 769 774 783 792 803 809 816 824 835 839 844 850 856 862 866 868 871 872 878 880 885 890 886 893 890 892
666 668 675 680 687 698 702 706 715 721 725 734 748 759 772 779 790 801 807 813 817 827 839 842 849 855 862 868 869 876 878 880 884 889 890 892 894 893
663 671 681 676 685 690 701 713 716 722 726 734 743 751 760 769 777 783 791 807 816 824 830 835 843 847 854 862 861 867 872 874 878 885 889 889 891 891
661 665 675 680 685 692 699 708 716 722 728 734 741 750 758 766 774 786 796 805 813 821 825 829 834 846 852 854 859 865 864 863 872 878 884 886 887 892
662 671 674 681 688 693 697 708 715 722 725 733 746 753 759 766 771 778 785 797 808 818 821 827 833 838 850 850 853 861 862 865 866 871 878 882 883 886
663 669 674 682 690 694 697 707 713 720 726 733 744 751 758 766 773 780 783 790 799 801 806 815 827 834 837 843 850 856 861 862 864 871 875 877 878 879
663 669 675 681 688 692 702 710 716 722 726 734 742 749 756 762 769 775 782 789 795 797 799 807 813 820 827 834 843 848 852 855 861 863 869 872 874 875
670 675 680 684 686 695 704 712 717 723 727 732 739 746 752 759 766 774 780 785 789 793 797 802 806 813 821 826 831 837 849 851 856 860 864 867 872 873
676 684 685 687 692 699 708 715 717 720 727 731 737 746 752 759 766 772 777 783 788 792 796 799 804 807 812 819 824 828 835 844 846 850 857 862 866 869
677 684 688 691 698 705 711 715 719 724 727 729 735 741 749 756 762 767 774 781 786 789 793 797 803 807 813 817 821 823 826 835 838 843 849 856 860 863
680 684 691 696 701 706 711 715 718 722 726 729 733 739 747 753 759 765 771 774 779 784 787 792 797 803 809 814 818 819 820 828 832 836 843 849 853 856
682 687 692 696 699 704 710 714 717 721 725 730 733 740 746 752 757 761 766 768 772 775 781 788 792 796 800 801 809 812 815 821 825 830 836 841 845 850
684 689 693 696 701 706 710 713 716 718 722 728 735 739 744 749 753 756 760 762 767 770 773 776 784 790 791 792 799 805 809 813 818 824 831 837 841 844
687 692 694 697 701 707 710 710 711 715 721 727 731 735 740 744 749 751 754 759 762 763 767 771 775 783 791 792 796 802 806 809 814 819 825 831 836 839
690 691 693 698 700 704 705 708 711 715 720 725 728 733 738 741 744 748 750 753 757 759 764 768 772 779 785 787 790 795 801 805 811 817 822 826 829 829
689 692 695 698 702 704 706 705 708 713 718 722 726 731 734 739 740 741 744 749 752 755 758 764 771 776 780 784 787 792 796 801 807 813 819 822 823 825